period_start,C,m1,H,J0,J1,J2,J3,J4,J5,JA,JB,JC,JD,JJ,JK,JN,#
2017-10-06 00:04:12,0.00,0.70,0.00,19.92,23.65,26.91,14.06,45.88,1014.18,2046.01,3213.81,2928.00,3350.99,599.83,600.67,38.44,0000 0000 0000 0000 000000
2017-10-06 00:09:14,0.01,0.70,0.00,19.93,23.65,26.87,14.03,45.70,1014.18,2046.01,3213.25,2928.00,3350.86,599.74,600.56,38.49,0000 0000 0000 0000 000000
2017-10-06 00:14:15,0.01,0.70,0.00,19.94,23.66,26.87,13.92,45.69,1014.19,2046.00,3213.01,2927.98,3350.29,599.44,600.29,38.54,0000 0000 0000 0000 000000
2017-10-06 00:19:16,0.00,0.70,0.00,19.92,23.67,26.88,14.08,45.77,1014.19,2046.01,3213.00,2927.92,3350.07,600.13,601.03,38.59,0000 0000 0000 0000 000000
2017-10-06 00:24:18,0.00,0.70,0.00,19.94,23.67,26.88,13.97,45.89,1014.19,2046.00,3213.00,2927.79,3350.02,599.71,600.45,38.64,0000 0000 0000 0000 000000
2017-10-06 00:29:19,0.01,0.70,0.00,19.92,23.67,26.90,14.04,45.96,1014.19,2046.00,3212.99,2927.33,3350.00,599.54,600.40,38.69,0000 0000 0000 0000 000000
2017-10-06 00:34:20,0.00,0.70,0.00,19.96,23.67,26.87,14.04,45.72,1014.19,2046.00,3212.92,2927.08,3350.00,600.03,600.83,38.74,0000 0000 0000 0000 000000
2017-10-06 00:39:22,0.01,0.70,0.00,19.95,23.67,26.90,14.08,45.83,1014.19,2046.00,3212.46,2927.02,3349.98,599.93,600.65,38.79,0000 0000 0000 0000 000000
2017-10-06 00:44:23,0.00,0.70,0.00,19.96,23.67,26.88,14.00,45.77,1014.19,2046.00,3212.07,2927.00,3349.93,599.73,600.58,38.84,0000 0000 0000 0000 000000
2017-10-06 00:49:24,0.00,0.70,0.00,20.00,23.67,26.89,14.01,45.79,1014.19,2046.00,3212.01,2927.00,3349.68,600.10,600.72,38.89,0000 0000 0000 0000 000000
2017-10-06 00:54:25,0.00,0.70,0.00,19.97,23.67,26.91,14.01,45.77,1014.19,2046.00,3212.00,2927.00,3349.19,599.58,600.24,38.94,0000 0000 0000 0000 000000
2017-10-06 00:59:27,0.00,0.70,0.00,20.01,23.67,26.90,14.09,45.98,1014.18,2046.00,3211.98,2926.98,3349.04,599.75,600.39,38.99,0000 0000 0000 0000 000000
2017-10-06 01:04:28,0.00,0.70,0.00,19.98,23.67,26.88,14.04,45.81,1014.18,2046.00,3211.98,2926.97,3349.03,599.63,600.31,39.05,0000 0000 0000 0000 000000
2017-10-06 01:09:29,0.00,0.70,0.00,20.00,23.68,26.90,14.11,45.81,1014.18,2046.00,3211.87,2926.93,3349.00,600.05,600.75,39.10,0000 0000 0000 0000 000000
2017-10-06 01:14:31,0.01,0.70,0.00,19.99,23.69,26.89,14.07,45.80,1014.18,2046.00,3211.52,2926.75,3349.00,600.03,600.80,39.15,0000 0000 0000 0000 000000
2017-10-06 01:19:32,0.01,0.70,0.00,19.99,23.69,26.89,14.03,45.77,1014.19,2046.00,3211.22,2926.40,3349.00,600.19,600.91,39.20,0000 0000 0000 0000 000000
2017-10-06 01:24:34,0.00,0.70,0.00,19.99,23.69,26.90,14.08,45.81,1014.18,2046.00,3211.04,2926.16,3348.99,600.00,600.71,39.25,0000 0000 0000 0000 000000
2017-10-06 01:29:35,0.00,0.70,0.00,20.03,23.70,26.92,14.04,45.77,1014.18,2046.00,3211.00,2926.03,3348.94,600.08,600.56,39.30,0000 0000 0000 0000 000000
2017-10-06 01:34:36,0.00,0.70,0.00,20.05,23.70,26.89,14.06,45.71,1014.19,2046.00,3211.00,2926.00,3348.55,600.33,600.88,39.35,0000 0000 0000 0000 000000
2017-10-06 01:39:38,0.00,0.71,0.00,20.02,23.70,26.91,14.08,45.72,1014.19,2046.00,3210.97,2926.00,3348.16,600.12,600.77,39.40,0000 0000 0000 0000 000000
2017-10-06 01:44:39,0.00,0.71,0.00,20.06,23.70,26.92,14.05,45.79,1014.20,2045.99,3210.65,2925.99,3348.02,599.72,600.29,39.45,0000 0000 0000 0000 000000
2017-10-06 01:49:40,0.00,0.71,0.00,20.03,23.70,26.92,14.10,45.77,1014.22,2045.99,3210.26,2925.99,3348.01,600.16,600.74,39.50,0000 0000 0000 0000 000000
2017-10-06 01:54:41,0.00,0.71,0.00,20.03,23.71,26.94,14.08,45.92,1014.19,2045.99,3210.23,2925.99,3348.01,600.26,600.89,39.55,0000 0000 0000 0000 000000
2017-10-06 01:59:42,0.00,0.71,0.00,20.06,23.72,26.94,14.02,45.86,1014.19,2045.99,3210.05,2925.96,3348.00,599.69,600.34,39.60,0000 0000 0000 0000 000000
2017-10-06 02:04:43,0.00,0.71,0.00,20.04,23.72,26.96,14.07,45.88,1014.19,2045.99,3210.00,2925.78,3347.98,600.28,600.90,39.65,0000 0000 0000 0000 000000
2017-10-06 02:09:44,0.01,0.71,0.00,20.08,23.72,26.94,13.99,45.76,1014.19,2045.98,3210.00,2925.35,3347.96,599.81,600.34,39.70,0000 0000 0000 0000 000000
2017-10-06 02:14:46,0.01,0.71,0.00,20.09,23.72,26.93,13.98,45.64,1014.18,2045.99,3209.96,2925.10,3347.85,599.79,600.28,39.75,0000 0000 0000 0000 000000
2017-10-06 02:19:47,0.00,0.71,0.00,20.11,23.72,26.94,14.06,45.90,1014.18,2045.99,3209.89,2925.08,3347.62,599.85,600.32,39.80,0000 0000 0000 0000 000000
2017-10-06 02:24:49,0.02,0.71,0.00,20.11,23.72,26.96,14.05,45.80,1014.18,2045.99,3209.36,2925.01,3347.13,600.11,600.56,39.85,0000 0000 0000 0000 000000
2017-10-06 02:29:50,0.00,0.71,0.00,20.09,23.73,26.96,14.09,45.70,1014.19,2045.98,3209.07,2925.00,3347.03,600.24,600.77,39.90,0000 0000 0000 0000 000000
2017-10-06 02:34:51,0.00,0.71,0.00,20.12,23.74,26.98,14.14,45.74,1014.19,2045.98,3209.00,2925.00,3347.00,600.43,600.87,39.95,0000 0000 0000 0000 000000
2017-10-06 02:39:53,0.00,0.71,0.00,20.08,23.75,26.99,14.06,45.74,1014.19,2045.97,3209.00,2924.99,3347.00,600.03,600.51,40.00,0000 0000 0000 0000 000000
2017-10-06 02:44:54,0.00,0.71,0.00,20.11,23.75,26.99,14.05,45.70,1014.18,2045.97,3208.99,2924.96,3347.00,600.28,600.73,40.05,0000 0000 0000 0000 000000
2017-10-06 02:49:55,0.00,0.71,0.00,20.10,23.75,26.97,14.05,45.69,1014.18,2045.95,3208.93,2924.89,3346.95,600.16,600.58,40.11,0000 0000 0000 0000 000000
2017-10-06 02:54:57,0.02,0.71,0.00,20.12,23.76,26.98,14.02,45.81,1014.18,2045.94,3208.54,2924.58,3346.74,600.24,600.43,40.16,0000 0000 0000 0000 000000
2017-10-06 02:59:58,0.02,0.71,0.00,20.15,23.77,26.97,14.03,45.87,1014.19,2045.94,3208.10,2924.17,3346.29,599.51,599.89,40.21,0000 0000 0000 0000 000000
2017-10-06 03:04:59,-0.00,0.71,0.00,20.13,23.77,26.98,14.03,45.77,1014.19,2045.93,3208.02,2924.03,3346.07,600.22,600.71,40.26,0000 0000 0000 0000 000000
2017-10-06 03:10:01,-0.01,0.71,0.00,20.20,23.77,27.00,14.08,45.74,1014.18,2045.84,3208.00,2924.01,3346.01,600.40,600.85,40.31,0000 0000 0000 0000 000000
2017-10-06 03:15:02,0.00,0.71,0.00,20.16,23.77,27.00,14.01,45.83,1014.18,2045.78,3207.99,2924.00,3346.00,599.69,600.23,40.36,0000 0000 0000 0000 000000
2017-10-06 03:20:03,0.00,0.71,0.00,20.18,23.79,27.01,14.09,45.85,1014.19,2045.88,3207.98,2924.00,3346.00,599.91,600.28,40.41,0000 0000 0000 0000 000000
2017-10-06 03:25:04,-0.03,0.71,0.00,20.20,23.80,26.98,14.04,45.88,1014.19,2045.62,3207.94,2924.00,3345.99,599.99,600.22,40.46,0000 0000 0000 0000 000000
2017-10-06 03:30:05,-0.02,0.71,0.00,20.17,23.80,27.05,14.05,45.81,1014.20,2045.28,3207.70,2923.99,3345.95,599.92,600.27,40.51,0000 0000 0000 0000 000000
2017-10-06 03:35:07,0.03,0.71,0.00,20.21,23.80,27.01,14.02,45.85,1014.19,2045.38,3207.12,2923.98,3345.74,599.56,599.85,40.56,0000 0000 0000 0000 000000
2017-10-06 03:40:08,0.01,0.71,0.00,20.19,23.82,27.04,14.06,45.81,1014.19,2045.31,3207.01,2923.75,3345.21,600.04,600.32,40.61,0000 0000 0000 0000 000000
2017-10-06 03:45:09,0.01,0.71,0.00,20.19,23.82,27.04,14.01,45.80,1014.18,2045.31,3207.00,2923.38,3345.04,599.76,600.08,40.66,0000 0000 0000 0000 000000
2017-10-06 03:50:10,-0.01,0.71,0.00,20.22,23.82,27.07,14.04,45.92,1014.18,2045.20,3207.00,2923.08,3345.01,600.25,600.43,40.71,0000 0000 0000 0000 000000
2017-10-06 03:55:11,-0.00,0.71,0.00,20.20,23.82,27.06,14.00,45.79,1014.18,2045.08,3206.89,2923.01,3345.00,599.83,600.18,40.76,0000 0000 0000 0000 000000
2017-10-06 04:00:13,0.01,0.71,0.00,20.24,23.84,27.08,14.05,45.88,1014.18,2045.06,3206.45,2923.00,3344.98,599.83,599.94,40.81,0000 0000 0000 0000 000000
2017-10-06 04:05:14,0.00,0.71,0.00,20.22,23.85,27.04,14.06,45.88,1014.19,2045.02,3206.07,2923.00,3344.93,599.90,600.26,40.86,0000 0000 0000 0000 000000
2017-10-06 04:10:15,0.00,0.71,0.00,20.22,23.85,27.09,14.03,45.83,1014.20,2045.03,3206.00,2922.98,3344.66,599.77,600.12,40.91,0000 0000 0000 0000 000000
2017-10-06 04:15:16,0.00,0.71,0.00,20.25,23.85,27.08,14.07,45.74,1014.21,2045.04,3206.00,2922.98,3344.29,600.41,600.48,40.96,0000 0000 0000 0000 000000
2017-10-06 04:20:18,0.00,0.71,0.00,20.23,23.87,27.07,14.06,45.84,1014.23,2045.05,3206.00,2922.95,3344.08,599.86,600.11,41.01,0000 0000 0000 0000 000000
2017-10-06 04:25:19,0.00,0.71,0.00,20.26,23.87,27.09,14.03,45.82,1014.22,2045.02,3205.97,2922.79,3344.02,600.02,600.24,41.07,0000 0000 0000 0000 000000
2017-10-06 04:30:20,0.02,0.71,0.00,20.26,23.87,27.12,14.04,46.00,1014.22,2045.01,3205.51,2922.16,3344.00,599.95,600.11,41.12,0000 0000 0000 0000 000000
2017-10-06 04:35:21,0.01,0.71,0.00,20.24,23.88,27.12,14.03,45.83,1014.22,2045.03,3205.05,2922.05,3344.00,600.01,600.17,41.17,0000 0000 0000 0000 000000
2017-10-06 04:40:22,0.00,0.71,0.00,20.29,23.90,27.12,13.99,45.87,1014.22,2045.03,3205.04,2922.03,3343.98,599.82,599.95,41.22,0000 0000 0000 0000 000000
2017-10-06 04:45:23,0.00,0.71,0.00,20.27,23.90,27.11,14.06,46.02,1014.24,2045.02,3205.00,2922.00,3343.93,600.06,600.26,41.27,0000 0000 0000 0000 000000
2017-10-06 04:50:25,0.01,0.71,0.00,20.30,23.90,27.13,14.01,45.73,1014.27,2045.00,3204.99,2922.00,3343.52,599.98,600.10,41.32,0000 0000 0000 0000 000000
2017-10-06 04:55:26,0.00,0.72,0.00,20.30,23.91,27.14,14.04,45.83,1014.25,2045.01,3204.93,2921.99,3343.09,600.17,600.28,41.37,0000 0000 0000 0000 000000
2017-10-06 05:00:27,0.01,0.72,0.00,20.27,23.92,27.15,14.02,45.78,1014.31,2045.01,3204.71,2921.97,3343.02,599.76,599.90,41.42,0000 0000 0000 0000 000000
2017-10-06 05:05:29,0.01,0.72,0.00,20.31,23.92,27.13,14.04,45.93,1014.34,2045.00,3204.11,2921.74,3343.00,599.69,599.90,41.47,0000 0000 0000 0000 000000
2017-10-06 05:10:30,0.01,0.72,0.00,20.29,23.92,27.14,13.95,45.82,1014.38,2045.00,3204.00,2921.30,3343.00,599.32,599.57,41.52,0000 0000 0000 0000 000000
2017-10-06 05:15:31,0.00,0.72,0.00,20.32,23.94,27.15,14.05,45.96,1014.55,2045.00,3204.00,2921.12,3342.98,600.15,600.38,41.57,0000 0000 0000 0000 000000
2017-10-06 05:20:32,0.00,0.72,0.00,20.34,23.95,27.14,14.02,45.98,1014.61,2045.00,3203.96,2921.01,3342.83,599.93,600.23,41.62,0000 0000 0000 0000 000000
2017-10-06 05:25:33,0.00,0.72,0.00,20.32,23.95,27.16,14.01,45.62,1014.63,2045.00,3203.95,2921.00,3342.54,599.96,600.27,41.67,0000 0000 0000 0000 000000
2017-10-06 05:30:35,0.01,0.72,0.00,20.34,23.95,27.17,14.10,45.74,1014.65,2045.00,3203.73,2921.00,3342.32,600.02,600.37,41.72,0000 0000 0000 0000 000000
2017-10-06 05:35:36,0.00,0.72,0.00,20.32,23.97,27.19,14.08,45.88,1014.66,2045.00,3203.27,2920.99,3342.03,599.77,600.09,41.77,0000 0000 0000 0000 000000
2017-10-06 05:40:37,0.00,0.72,0.00,20.32,23.97,27.19,14.13,45.91,1014.64,2045.00,3203.08,2920.99,3342.01,600.02,600.27,41.82,0000 0000 0000 0000 000000
2017-10-06 05:45:38,0.00,0.72,0.00,20.32,23.97,27.18,13.99,45.79,1014.66,2045.00,3203.00,2920.97,3342.00,599.82,600.14,41.87,0000 0000 0000 0000 000000
2017-10-06 05:50:40,0.00,0.72,0.00,20.30,23.99,27.20,14.05,45.77,1014.66,2045.00,3203.00,2920.94,3342.00,600.22,600.60,41.92,0000 0000 0000 0000 000000
2017-10-06 05:55:41,0.01,0.72,0.00,20.31,24.00,27.23,14.00,45.68,1014.66,2045.00,3202.99,2920.75,3342.00,599.78,600.12,41.97,0000 0000 0000 0000 000000
2017-10-06 06:00:42,0.01,0.72,0.00,20.30,24.00,27.21,14.10,45.95,1014.66,2045.00,3202.98,2920.33,3341.92,600.02,600.57,42.02,0000 0000 0000 0000 000000
2017-10-06 06:05:44,0.01,0.72,0.00,20.33,24.00,27.22,13.99,45.75,1014.66,2044.99,3202.89,2920.11,3341.62,599.77,600.11,42.08,0000 0000 0000 0000 000000
2017-10-06 06:10:45,0.01,0.72,0.00,20.32,24.01,27.21,14.06,45.75,1014.66,2044.97,3202.28,2920.02,3341.06,600.40,600.62,42.13,0000 0000 0000 0000 000000
2017-10-06 06:15:46,0.00,0.72,0.00,20.33,24.02,27.21,14.07,45.85,1014.66,2044.97,3202.04,2920.00,3341.02,599.60,599.89,42.18,0000 0000 0000 0000 000000
2017-10-06 06:20:48,-0.00,0.72,0.00,20.36,24.02,27.22,14.03,45.72,1014.66,2044.97,3202.00,2920.00,3341.00,599.76,600.12,42.23,0000 0000 0000 0000 000000
2017-10-06 06:25:49,-0.00,0.72,0.00,20.34,24.02,27.24,13.96,45.65,1014.66,2044.97,3202.00,2920.00,3341.00,599.75,599.95,42.28,0000 0000 0000 0000 000000
2017-10-06 06:30:50,0.00,0.72,0.00,20.35,24.02,27.24,14.01,45.64,1014.66,2044.96,3201.99,2919.99,3341.00,599.98,600.15,42.33,0000 0000 0000 0000 000000
2017-10-06 06:35:52,0.00,0.72,0.00,20.33,24.03,27.22,14.13,45.65,1014.66,2044.95,3201.92,2919.97,3340.98,600.20,600.43,42.38,0000 0000 0000 0000 000000
2017-10-06 06:40:53,0.00,0.72,0.00,20.33,24.03,27.27,14.03,45.60,1014.66,2044.97,3201.73,2919.93,3340.92,599.62,599.81,42.43,0000 0000 0000 0000 000000
2017-10-06 06:45:54,0.01,0.72,0.00,20.35,24.04,27.24,14.06,45.56,1014.66,2044.90,3201.21,2919.76,3340.69,600.11,600.37,42.48,0000 0000 0000 0000 000000
2017-10-06 06:50:56,0.02,0.72,0.00,20.32,24.05,27.25,14.01,45.58,1014.66,2044.94,3201.06,2919.46,3340.39,599.82,600.20,42.53,0000 0000 0000 0000 000000
2017-10-06 06:55:57,0.00,0.72,0.00,20.35,24.05,27.25,14.06,45.76,1014.66,2044.89,3201.00,2919.09,3340.02,599.88,600.16,42.58,0000 0000 0000 0000 000000
2017-10-06 07:00:58,-0.01,0.72,0.00,20.33,24.05,27.25,13.99,45.73,1014.66,2044.83,3201.00,2919.02,3340.01,599.77,600.08,42.63,0000 0000 0000 0000 000000
2017-10-06 07:06:00,0.01,0.72,0.00,20.33,24.05,27.26,14.01,45.51,1014.66,2044.81,3200.99,2919.01,3340.00,600.07,600.32,42.68,0000 0000 0000 0000 000000
2017-10-06 07:11:01,0.00,0.72,0.00,20.32,24.05,27.25,14.03,45.63,1014.66,2044.83,3200.96,2919.00,3340.00,599.63,599.98,42.73,0000 0000 0000 0000 000000
2017-10-06 07:16:02,-0.00,0.72,0.00,20.31,24.05,27.26,14.06,45.67,1014.66,2044.86,3200.88,2919.00,3340.00,599.79,600.40,42.78,0000 0000 0000 0000 000000
2017-10-06 07:21:03,0.00,0.72,0.00,20.32,24.05,27.24,14.00,45.63,1014.66,2044.82,3200.65,2919.00,3339.99,599.74,600.06,42.83,0000 0000 0000 0000 000000
2017-10-06 07:26:05,-0.01,0.72,0.00,20.30,24.05,27.25,14.10,45.74,1014.66,2044.63,3200.12,2918.99,3339.96,600.19,600.51,42.88,0000 0000 0000 0000 000000
2017-10-06 07:31:06,-0.01,0.72,0.00,20.36,24.05,27.26,13.99,45.62,1014.66,2044.54,3200.02,2918.97,3339.71,599.56,599.76,42.93,0000 0000 0000 0000 000000
2017-10-06 07:36:07,-0.00,0.72,0.00,20.31,24.05,27.27,14.03,45.56,1014.66,2044.30,3200.00,2918.82,3339.18,600.11,600.34,42.98,0000 0000 0000 0000 000000
2017-10-06 07:41:08,0.01,0.72,0.00,20.29,24.05,27.27,14.01,45.68,1014.66,2044.29,3199.98,2918.54,3339.04,599.58,599.94,43.03,0000 0000 0000 0000 000000
2017-10-06 07:46:09,0.01,0.72,0.00,20.29,24.05,27.24,14.08,45.76,1014.66,2044.33,3199.97,2918.26,3339.01,600.05,600.40,43.09,0000 0000 0000 0000 000000
2017-10-06 07:51:10,0.01,0.72,0.00,20.29,24.05,27.24,14.08,45.69,1014.66,2044.30,3199.89,2918.08,3339.00,600.10,600.53,43.14,0000 0000 0000 0000 000000
2017-10-06 07:56:12,0.00,0.73,0.00,20.32,24.05,27.26,14.03,45.65,1014.66,2044.37,3199.61,2918.04,3339.00,599.79,599.99,43.19,0000 0000 0000 0000 000000
2017-10-06 08:01:13,-0.01,0.73,0.00,20.29,24.05,27.27,14.05,45.64,1014.66,2044.16,3199.22,2918.01,3339.00,599.86,600.29,43.24,0000 0000 0000 0000 000000
2017-10-06 08:06:14,-0.00,0.73,0.00,20.29,24.05,27.26,14.08,45.68,1014.66,2044.12,3199.08,2918.01,3338.99,600.06,600.39,43.29,0000 0000 0000 0000 000000
2017-10-06 08:11:15,0.00,0.72,0.00,20.29,24.05,27.27,14.14,45.64,1014.66,2044.06,3199.01,2918.00,3338.96,600.12,600.54,43.34,0000 0000 0000 0000 000000
2017-10-06 08:16:17,-0.00,0.73,0.00,20.30,24.05,27.25,14.03,45.70,1014.66,2044.08,3199.01,2918.00,3338.97,599.76,600.10,43.39,0000 0000 0000 0000 000000
2017-10-06 08:21:18,0.01,0.73,0.00,20.33,24.05,27.25,14.03,45.53,1014.66,2044.04,3199.00,2918.00,3338.66,599.61,599.92,43.44,0000 0000 0000 0000 000000
2017-10-06 08:26:19,0.00,0.73,0.00,20.31,24.05,27.22,14.01,45.53,1014.66,2044.03,3199.00,2917.99,3338.16,599.83,600.18,43.49,0000 0000 0000 0000 000000
2017-10-06 08:31:20,0.00,0.73,0.00,20.31,24.05,27.26,13.96,45.57,1014.66,2044.03,3199.00,2917.98,3338.06,599.91,600.29,43.54,0000 0000 0000 0000 000000
2017-10-06 08:36:21,-0.00,0.73,0.00,20.29,24.05,27.27,14.14,45.68,1014.68,2044.03,3198.99,2917.97,3338.03,600.18,600.48,43.59,0000 0000 0000 0000 000000
2017-10-06 08:41:23,0.00,0.73,0.00,20.31,24.05,27.27,14.09,45.58,1014.66,2044.04,3198.95,2917.96,3338.02,600.09,600.40,43.64,0000 0000 0000 0000 000000
2017-10-06 08:46:24,0.01,0.73,0.00,20.28,24.05,27.28,14.10,45.61,1014.67,2044.04,3198.72,2917.87,3338.01,600.41,600.91,43.69,0000 0000 0000 0000 000000
2017-10-06 08:51:25,0.01,0.73,0.00,20.27,24.05,27.28,14.03,45.58,1014.67,2044.04,3198.26,2917.70,3338.00,599.84,600.33,43.74,0000 0000 0000 0000 000000
2017-10-06 08:56:27,0.00,0.73,0.00,20.28,24.05,27.27,14.06,45.61,1014.66,2044.05,3198.13,2917.64,3338.00,599.59,600.10,43.79,0000 0000 0000 0000 000000
2017-10-06 09:01:28,0.01,0.73,0.00,20.24,24.05,27.23,14.02,45.56,1014.67,2044.10,3198.04,2917.41,3338.00,599.51,599.99,43.84,0000 0000 0000 0000 000000
2017-10-06 09:06:29,0.00,0.73,0.00,20.26,24.05,27.23,14.05,45.43,1014.67,2044.06,3198.00,2917.10,3337.98,600.04,600.59,43.89,0000 0000 0000 0000 000000
2017-10-06 09:11:30,0.00,0.73,0.00,20.24,24.05,27.26,14.07,45.68,1014.66,2044.06,3198.00,2917.05,3337.95,600.33,600.76,43.94,0000 0000 0000 0000 000000
2017-10-06 09:16:32,0.00,0.73,0.00,20.26,24.05,27.24,14.07,45.52,1014.66,2044.08,3197.99,2917.02,3337.82,600.04,600.51,43.99,0000 0000 0000 0000 000000
2017-10-06 09:21:33,0.00,0.73,0.00,20.27,24.05,27.24,14.04,45.67,1014.66,2044.06,3197.97,2917.00,3337.43,600.24,600.65,44.05,0000 0000 0000 0000 000000
2017-10-06 09:26:34,0.00,0.73,0.00,20.26,24.05,27.22,14.05,45.66,1014.66,2044.06,3197.90,2917.00,3337.29,600.28,600.66,44.10,0000 0000 0000 0000 000000
2017-10-06 09:31:36,0.00,0.73,0.00,20.28,24.05,27.25,14.06,45.78,1014.67,2044.04,3197.50,2917.00,3337.04,599.75,600.17,44.15,0000 0000 0000 0000 000000
2017-10-06 09:36:36,0.01,0.73,0.00,20.24,24.05,27.22,14.03,45.58,1014.67,2044.07,3197.19,2917.00,3337.02,599.64,600.19,44.20,0000 0000 0000 0000 000000
2017-10-06 09:41:38,0.00,0.73,0.00,20.25,24.05,27.25,13.98,45.52,1014.66,2044.07,3197.04,2917.00,3337.01,599.70,600.23,44.25,0000 0000 0000 0000 000000
2017-10-06 09:46:39,0.00,0.73,0.00,20.23,24.05,27.23,14.02,45.62,1014.66,2044.05,3197.01,2916.98,3337.00,600.38,600.84,44.30,0000 0000 0000 0000 000000
2017-10-06 09:51:40,-0.00,0.73,0.00,20.22,24.05,27.22,14.03,45.55,1014.66,2044.03,3197.01,2916.97,3337.00,600.00,600.67,44.35,0000 0000 0000 0000 000000
2017-10-06 09:56:42,0.00,0.73,0.00,20.21,24.05,27.23,14.04,45.70,1014.66,2044.04,3197.00,2916.96,3336.99,599.81,600.36,44.40,0000 0000 0000 0000 000000
2017-10-06 10:01:43,-0.00,0.73,0.00,20.18,24.05,27.23,13.97,45.57,1014.66,2044.06,3197.00,2916.97,3336.99,599.44,600.14,44.45,0000 0000 0000 0000 000000
2017-10-06 10:06:44,-0.00,0.73,0.00,20.22,24.05,27.23,14.01,45.56,1014.66,2044.07,3196.99,2916.91,3336.97,599.61,600.23,44.50,0000 0000 0000 0000 000000
2017-10-06 10:11:45,0.00,0.73,0.00,20.18,24.04,27.23,14.11,45.54,1014.66,2044.03,3196.98,2916.84,3336.99,599.62,600.21,44.55,0000 0000 0000 0000 000000
2017-10-06 10:16:47,0.01,0.73,0.00,20.26,24.03,27.21,14.06,45.54,1014.66,2044.06,3196.96,2916.62,3336.96,599.87,600.50,44.60,0000 0000 0000 0000 000000
2017-10-06 10:21:48,0.01,0.73,0.00,20.22,24.02,27.23,14.03,45.51,1014.67,2044.07,3196.88,2916.51,3336.93,600.08,600.60,44.65,0000 0000 0000 0000 000000
2017-10-06 10:26:49,0.01,0.73,0.00,20.21,24.02,27.22,14.01,45.63,1014.66,2044.08,3196.47,2916.16,3336.81,599.83,600.38,44.70,0000 0000 0000 0000 000000
2017-10-06 10:31:51,0.01,0.73,0.00,20.21,24.02,27.21,14.04,45.63,1014.67,2044.17,3196.31,2916.23,3336.79,599.91,600.42,44.75,0000 0000 0000 0000 000000
2017-10-06 10:36:52,0.00,0.73,0.00,20.19,24.02,27.18,14.15,45.73,1014.68,2044.17,3196.18,2916.17,3336.74,600.38,600.91,44.80,0000 0000 0000 0000 000000
2017-10-06 10:41:53,0.01,0.73,0.00,20.19,24.02,27.20,14.03,45.62,1014.67,2044.23,3196.06,2916.10,3336.56,599.89,600.45,44.85,0000 0000 0000 0000 000000
2017-10-06 10:46:55,0.00,0.73,0.00,20.17,24.01,27.21,14.05,45.60,1014.67,2044.30,3196.05,2916.09,3336.34,600.01,600.72,44.90,0000 0000 0000 0000 000000
2017-10-06 10:51:56,0.03,0.73,0.00,20.16,24.00,27.17,14.05,45.58,1014.68,2044.62,3196.03,2916.13,3336.38,599.49,600.15,44.95,0000 0000 0000 0000 000000
2017-10-06 10:56:57,0.02,0.74,0.00,20.17,24.00,27.19,14.03,45.64,1014.67,2044.76,3196.00,2916.09,3336.30,599.40,599.92,45.01,0000 0000 0000 0000 000000
2017-10-06 11:01:58,0.00,0.74,0.00,20.18,24.00,27.18,13.97,45.67,1014.67,2044.72,3196.00,2916.07,3336.11,599.81,600.45,45.06,0000 0000 0000 0000 000000
2017-10-06 11:07:00,0.01,0.74,0.00,20.22,23.99,27.16,13.96,45.63,1014.66,2044.88,3196.00,2916.05,3336.12,599.63,600.19,45.11,0000 0000 0000 0000 000000
2017-10-06 11:12:01,0.00,0.74,0.00,20.16,23.98,27.16,14.07,45.64,1014.66,2044.88,3196.00,2916.03,3336.07,600.03,600.70,45.16,0000 0000 0000 0000 000000
2017-10-06 11:17:02,0.01,0.74,0.00,20.16,23.97,27.17,14.07,45.70,1014.66,2044.89,3195.98,2916.01,3336.02,599.82,600.37,45.21,0000 0000 0000 0000 000000
2017-10-06 11:22:04,0.00,0.74,0.00,20.13,23.97,27.16,14.05,45.67,1014.66,2044.92,3195.98,2916.00,3336.01,599.96,600.66,45.26,0000 0000 0000 0000 000000
2017-10-06 11:27:05,-0.00,0.74,0.00,20.13,23.97,27.17,13.99,45.60,1014.66,2044.93,3195.91,2916.00,3336.00,599.90,600.51,45.31,0000 0000 0000 0000 000000
2017-10-06 11:32:06,0.00,0.74,0.00,20.13,23.97,27.17,14.04,45.60,1014.66,2044.97,3195.83,2916.00,3336.00,599.89,600.59,45.36,0000 0000 0000 0000 000000
2017-10-06 11:37:08,0.00,0.74,0.00,20.11,23.97,27.18,14.05,45.52,1014.66,2044.92,3195.53,2916.00,3336.00,600.19,600.88,45.41,0000 0000 0000 0000 000000
2017-10-06 11:42:09,0.01,0.74,0.00,20.12,23.95,27.14,13.99,45.58,1014.66,2044.94,3195.32,2916.00,3336.00,599.54,600.29,45.46,0000 0000 0000 0000 000000
2017-10-06 11:47:11,-0.00,0.74,0.00,20.12,23.95,27.14,14.05,45.73,1014.66,2044.95,3195.27,2916.00,3336.00,599.85,600.73,45.51,0000 0000 0000 0000 000000
2017-10-06 11:52:12,0.00,0.74,0.00,20.15,23.95,27.13,14.07,45.57,1014.66,2044.97,3195.09,2916.00,3335.99,600.02,600.77,45.56,0000 0000 0000 0000 000000
2017-10-06 11:57:13,-0.00,0.74,0.00,20.11,23.95,27.13,14.05,45.54,1014.66,2044.94,3195.25,2916.00,3335.99,599.99,600.69,45.61,0000 0000 0000 0000 000000
2017-10-06 12:02:15,-0.00,0.74,0.00,20.12,23.94,27.12,14.01,45.52,1014.66,2044.95,3195.18,2916.00,3335.99,599.39,600.15,45.66,0000 0000 0000 0000 000000
2017-10-06 12:07:16,-0.00,0.74,0.00,20.12,23.92,27.13,14.04,45.66,1014.66,2044.92,3195.06,2916.00,3335.98,600.06,600.74,45.71,0000 0000 0000 0000 000000
2017-10-06 12:12:17,0.00,0.74,0.00,20.09,23.92,27.13,14.07,45.69,1014.66,2044.96,3195.02,2916.00,3335.98,600.01,600.78,45.76,0000 0000 0000 0000 000000
2017-10-06 12:17:18,-0.00,0.74,0.00,20.12,23.92,27.14,14.12,45.58,1014.66,2044.91,3195.01,2915.99,3335.97,600.43,601.12,45.81,0000 0000 0000 0000 000000
2017-10-06 12:22:20,0.00,0.74,0.00,20.08,23.92,27.11,14.04,45.63,1014.66,2044.92,3195.01,2915.99,3335.96,599.83,600.64,45.86,0000 0000 0000 0000 000000
2017-10-06 12:27:21,0.00,0.74,0.00,20.10,23.90,27.11,14.07,45.61,1014.66,2044.96,3195.00,2915.99,3335.96,600.30,601.03,45.92,0000 0000 0000 0000 000000
2017-10-06 12:32:22,0.00,0.74,0.00,20.12,23.90,27.10,14.10,45.77,1014.66,2044.97,3195.00,2915.99,3335.94,600.19,600.90,45.97,0000 0000 0000 0000 000000
2017-10-06 12:37:23,0.00,0.74,0.00,20.09,23.90,27.09,13.99,45.65,1014.66,2044.97,3195.00,2915.98,3335.87,599.84,600.64,46.02,0000 0000 0000 0000 000000
2017-10-06 12:42:24,0.00,0.74,0.00,20.09,23.88,27.07,14.03,45.57,1014.66,2044.98,3195.00,2915.98,3335.81,600.18,600.92,46.07,0000 0000 0000 0000 000000
2017-10-06 12:47:26,-0.00,0.74,0.00,20.07,23.87,27.09,14.05,45.63,1014.66,2044.97,3195.00,2915.98,3335.78,599.81,600.59,46.12,0000 0000 0000 0000 000000
2017-10-06 12:52:27,-0.00,0.74,0.00,20.09,23.87,27.08,14.05,45.61,1014.66,2044.97,3194.99,2915.98,3335.77,600.13,601.06,46.17,0000 0000 0000 0000 000000
2017-10-06 12:57:28,0.00,0.74,0.00,20.07,23.87,27.09,14.07,45.63,1014.65,2044.95,3194.98,2915.98,3335.40,600.10,600.98,46.22,0000 0000 0000 0000 000000